, AK

(GMT )
Denali Park

Weather History for PAIN - March, 2013

Change the Weather History Date:

Friday, March 15, 2013

  Actual Average Record
Temperature  
Mean Temperature 4 °F -  
Max Temperature 23 °F 26 °F 45 °F (1967)
Min Temperature -16 °F 0 °F -36 °F (2007)
Degree Days  
Heating Degree Days 62    
Moisture  
Dew Point -7 °F    
Average Humidity 69    
Maximum Humidity 92    
Minimum Humidity 39    
Precipitation  
Precipitation 0.00 in - - ()
Sea Level Pressure  
Sea Level Pressure 29.78 in    
Wind  
Wind Speed 2 mph (North)    
Max Wind Speed 15 mph    
Max Gust Speed 20 mph    
Visibility 10 miles    
Events      
Averages and records for this station are not official NWS values.
T = Trace of Precipitation, MM = Missing Value Source: NWS Daily Summary

Daily Weather History Graph

Daily Weather History Graph

Search for Another Location

Airport or City:

Trip Planner

Search our weather history database for the weather conditions in past years. The results will help you decide how hot, cold, wet, or windy it might be!

Date:

Astronomy

Mar. 15, 2013 Rise Set
Actual Time 8:12 AM AKDT 7:58 PM AKDT
Civil Twilight 7:25 AM AKDT 8:45 PM AKDT
Nautical Twilight 6:29 AM AKDT 9:41 PM AKDT
Astronomical Twilight 5:28 AM AKDT 10:43 PM AKDT
Moon 8:36 AM AKDT (3/15) 12:49 AM AKDT (3/15)
Length of Visible Light 13h 19m
Length of Day
11h 45m
Waxing Crescent, 16% of the Moon is Illuminated
Mar 15
Waxing Crescent
Mar 19
First Quarter
Mar 27
Full
Apr 2
Last Quarter
Apr 10
New

Hourly Weather History & Observations

Time (AKDT) Temp. Windchill Dew Point Humidity Pressure Visibility Wind Dir Wind Speed Gust Speed Precip Events Conditions
12:16 AM -0.4 °F - -5.8 °F 78% 29.89 in 10.0 mi Calm Calm - N/A   Clear
12:36 AM -2.2 °F - -5.8 °F 85% 29.89 in 10.0 mi Calm Calm - N/A   Clear
12:56 AM -2.2 °F - -5.8 °F 85% 29.88 in 10.0 mi Calm Calm - N/A   Clear
1:16 AM -2.2 °F - -5.8 °F 85% 29.89 in 10.0 mi Calm Calm - N/A   Clear
1:36 AM -4.0 °F - -7.6 °F 85% 29.88 in 10.0 mi Calm Calm - N/A   Clear
1:56 AM -5.8 °F - -7.6 °F 92% 29.88 in 10.0 mi Calm Calm - N/A   Clear
2:16 AM -5.8 °F - -7.6 °F 92% 29.88 in 10.0 mi Calm Calm - N/A   Clear
2:36 AM -5.8 °F - -7.6 °F 92% 29.87 in 10.0 mi Calm Calm - N/A   Clear
2:56 AM -5.8 °F - -7.6 °F 92% 29.86 in 10.0 mi Calm Calm - N/A   Clear
3:16 AM -7.6 °F - -9.4 °F 92% 29.86 in 10.0 mi Calm Calm - N/A   Clear
3:36 AM -9.4 °F - -11.2 °F 92% 29.86 in 10.0 mi Calm Calm - N/A   Clear
3:56 AM -9.4 °F - -11.2 °F 92% 29.86 in 10.0 mi Calm Calm - N/A   Clear
4:16 AM -9.4 °F - -11.2 °F 92% 29.86 in 10.0 mi Calm Calm - N/A   Clear
4:36 AM -9.4 °F - -11.2 °F 92% 29.86 in 10.0 mi Calm Calm - N/A   Clear
4:56 AM -9.4 °F - -13.0 °F 84% 29.86 in 10.0 mi Calm Calm - N/A   Clear
5:16 AM -9.4 °F - -13.0 °F 84% 29.85 in 10.0 mi Calm Calm - N/A   Clear
5:36 AM -11.2 °F - -14.8 °F 84% 29.85 in 10.0 mi Calm Calm - N/A   Clear
5:56 AM -11.2 °F - -14.8 °F 84% 29.85 in 10.0 mi Calm Calm - N/A   Clear
6:16 AM -11.2 °F - -14.8 °F 84% 29.85 in 10.0 mi Calm Calm - N/A   Clear
6:36 AM -11.2 °F - -14.8 °F 84% 29.84 in 10.0 mi Calm Calm - N/A   Clear
6:56 AM - - - N/A% 29.84 in 10.0 mi Calm Calm - N/A   Clear
7:16 AM -14.8 °F - -16.6 °F 92% 29.84 in 10.0 mi Calm Calm - N/A   Clear
7:36 AM -14.8 °F - -18.4 °F 84% 29.84 in 10.0 mi Calm Calm - N/A   Clear
7:56 AM -14.8 °F - -16.6 °F 92% 29.84 in 10.0 mi Calm Calm - N/A   Clear
8:16 AM -14.8 °F - -18.4 °F 84% 29.83 in 10.0 mi Calm Calm - N/A   Clear
8:36 AM -16.6 °F - -20.2 °F 84% 29.82 in 10.0 mi Calm Calm - N/A   Clear
8:56 AM -16.6 °F - -18.4 °F 92% 29.81 in 10.0 mi Calm Calm - N/A   Clear
9:16 AM -14.8 °F - -16.6 °F 92% 29.81 in 10.0 mi Calm Calm - N/A   Clear
9:36 AM -9.4 °F - -11.2 °F 92% 29.80 in 10.0 mi Calm Calm - N/A   Clear
9:56 AM -5.8 °F - -9.4 °F 84% 29.79 in 10.0 mi Calm Calm - N/A   Clear
10:16 AM -4.0 °F - -7.6 °F 85% 29.79 in 10.0 mi Calm Calm - N/A   Clear
10:36 AM -0.4 °F - -5.8 °F 78% 29.79 in 10.0 mi Calm Calm - N/A   Clear
10:56 AM 3.2 °F - -2.2 °F 78% 29.78 in 10.0 mi Calm Calm - N/A   Clear
11:16 AM 8.6 °F - -2.2 °F 62% 29.77 in 10.0 mi Calm Calm - N/A   Clear
11:36 AM 12.2 °F - -0.4 °F 57% 29.76 in 10.0 mi Calm Calm - N/A   Clear
11:56 AM 15.8 °F - -0.4 °F 49% 29.75 in 10.0 mi Calm Calm - N/A   Clear
12:16 PM 17.6 °F - 3.2 °F 53% 29.74 in 10.0 mi Calm Calm - N/A   Clear
12:36 PM 23.0 °F 14.7 °F 1.4 °F 39% 29.74 in 10.0 mi NNE 6.9 mph - N/A   Clear
12:56 PM 15.8 °F 5.1 °F -0.4 °F 49% 29.74 in 10.0 mi NNE 8.1 mph - N/A   Clear
1:16 PM 12.2 °F -1.0 °F -2.2 °F 53% 29.73 in 10.0 mi North 10.4 mph - N/A   Clear
1:36 PM 12.2 °F -0.2 °F -2.2 °F 53% 29.72 in 10.0 mi North 9.2 mph 16.1 mph N/A   Clear
1:56 PM 14.0 °F 2.0 °F -2.2 °F 49% 29.72 in 10.0 mi North 9.2 mph - N/A   Clear
2:16 PM 15.8 °F 5.1 °F -2.2 °F 45% 29.72 in 10.0 mi North 8.1 mph - N/A   Clear
2:36 PM 15.8 °F 4.2 °F -2.2 °F 45% 29.71 in 10.0 mi North 9.2 mph - N/A   Clear
2:56 PM 15.8 °F 3.4 °F -2.2 °F 45% 29.71 in 10.0 mi North 10.4 mph 16.1 mph N/A   Clear
3:16 PM 17.6 °F 5.0 °F -2.2 °F 42% 29.71 in 10.0 mi North 11.5 mph - N/A   Clear
3:36 PM 17.6 °F 5.0 °F -2.2 °F 42% 29.71 in 10.0 mi North 11.5 mph 17.3 mph N/A   Clear
3:56 PM 17.6 °F 5.0 °F -2.2 °F 42% 29.70 in 10.0 mi North 11.5 mph 19.6 mph N/A   Clear
4:16 PM 17.6 °F 3.2 °F -2.2 °F 42% 29.69 in 10.0 mi North 15.0 mph 19.6 mph N/A   Clear
4:36 PM 17.6 °F 5.7 °F -2.2 °F 42% 29.70 in 10.0 mi North 10.4 mph 19.6 mph N/A   Clear
4:56 PM 17.6 °F 6.4 °F -2.2 °F 42% 29.70 in 10.0 mi North 9.2 mph 17.3 mph N/A   Clear
5:16 PM 19.4 °F 7.9 °F -2.2 °F 39% 29.70 in 10.0 mi North 10.4 mph 19.6 mph N/A   Clear
5:36 PM 17.6 °F 5.0 °F -2.2 °F 42% 29.70 in 10.0 mi North 11.5 mph 18.4 mph N/A   Clear
5:56 PM 17.6 °F 5.0 °F -2.2 °F 42% 29.70 in 10.0 mi North 11.5 mph 18.4 mph N/A   Clear
6:16 PM 17.6 °F 5.0 °F -2.2 °F 42% 29.70 in 10.0 mi North 11.5 mph 18.4 mph N/A   Clear
6:36 PM 15.8 °F 3.4 °F -2.2 °F 45% 29.70 in 10.0 mi North 10.4 mph 17.3 mph N/A   Clear
6:56 PM 15.8 °F 4.2 °F -2.2 °F 45% 29.71 in 10.0 mi North 9.2 mph - N/A   Clear
7:16 PM 14.0 °F 2.0 °F -4.0 °F 45% 29.71 in 10.0 mi North 9.2 mph - N/A   Clear
7:36 PM 12.2 °F 1.7 °F -4.0 °F 48% 29.72 in 10.0 mi North 6.9 mph - N/A   Clear
7:56 PM 10.4 °F - -5.8 °F 48% 29.72 in 10.0 mi Calm Calm - N/A   Clear
8:16 PM 6.8 °F - -5.8 °F 56% 29.72 in 10.0 mi Calm Calm - N/A   Clear
8:36 PM 3.2 °F - -5.8 °F 66% 29.73 in 10.0 mi Calm Calm - N/A   Clear
9:56 PM -0.4 °F - -7.6 °F 72% 29.74 in 10.0 mi Calm Calm - N/A   Clear
10:16 PM -0.4 °F - -9.4 °F 66% 29.75 in 10.0 mi Calm Calm - N/A   Clear
10:36 PM -2.2 °F - -9.4 °F 71% 29.75 in 10.0 mi Calm Calm - N/A   Clear
10:56 PM -4.0 °F - -9.4 °F 78% 29.76 in 10.0 mi Calm Calm - N/A   Clear
11:16 PM -5.8 °F - -9.4 °F 84% 29.77 in 10.0 mi Calm Calm - N/A   Clear
11:36 PM -5.8 °F - -11.2 °F 77% 29.77 in 10.0 mi Calm Calm - N/A   Clear
11:56 PM -5.8 °F - -11.2 °F 77% 29.78 in 10.0 mi Calm Calm - N/A   Clear